Terminal Aerodrome Forecast
Issued by NWS Cleveland, OH

Home | Current Version | Previous Version | Text Only | Print | Product List | Glossary On
Versions: 1 2 3 4 5 6 7 8 9 10 11 12 13 14 15 16 17 18 19
000
FTUS41 KCLE 221100
TAFCAK
TAF
KCAK 221139Z 2212/2312 36010KT P6SM OVC007
     FM221430 36010KT P6SM OVC012
     FM221700 36010KT P6SM OVC025
     FM222000 36010KT P6SM BKN035
     FM222300 36004KT P6SM SCT035=

USA.gov is the U.S. government's official web portal to all federal, state and local government web resources and services.